Weather History for Punta Gorda, FL

Change the Weather History Date:

Sunday, June 9, 2013

  Actual Average Record
Temperature  
Mean Temperature 82 °F -  
Max Temperature 93 °F 89 °F 95 °F (2006)
Min Temperature 73 °F 69 °F 68 °F (2002)
Cooling Degree Days 17    
Growing Degree Days 32 (Base 50)    
Moisture  
Dew Point 74 °F    
Average Humidity 80    
Maximum Humidity 97    
Minimum Humidity 48    
Precipitation  
Precipitation 0.00 in - - ()
Sea Level Pressure  
Sea Level Pressure 30.08 in    
Wind  
Wind Speed 7 mph (SE)    
Max Wind Speed 12 mph    
Max Gust Speed 16 mph    
Visibility 10 miles    
Events Thunderstorm    
Averages and records for this station are not official NWS values.
T = Trace of Precipitation, MM = Missing Value Source: NWS Daily Summary

Daily Weather History Graph

Daily Weather History Graph

Search for Another Location

Airport:

Trip Planner

Search our weather history database for the weather conditions in past years. The results will help you decide how hot, cold, wet, or windy it might be!

Date:

Astronomy

Jun. 09, 2013 Rise Set
Actual Time 6:33 AM EDT 8:21 PM EDT
Civil Twilight 6:07 AM EDT 8:47 PM EDT
Nautical Twilight 5:35 AM EDT 9:19 PM EDT
Astronomical Twilight 5:02 AM EDT 9:52 PM EDT
Moon 7:23 AM EDT (6/9) 9:13 PM EDT (6/9)
Length of Visible Light 14h 40m
Length of Day
13h 47m
New Moon, 1% of the Moon is Illuminated
Jun 9
New Moon
Jun 16
First Quarter
Jun 23
Full
Jun 30
Last Quarter
Jul 8
New

Hourly Weather History & Observations

Time (EDT) Temp. Heat Index Dew Point Humidity Pressure Visibility Wind Dir Wind Speed Gust Speed Precip Events Conditions
12:53 AM 73.9 °F - 72.0 °F 93% 30.12 in 10.0 mi ESE 5.8 mph - N/A   Clear
1:53 AM 73.9 °F - 71.1 °F 91% 30.10 in 10.0 mi ESE 5.8 mph - N/A   Clear
2:53 AM 75.0 °F - 73.0 °F 94% 30.08 in 10.0 mi ESE 6.9 mph - N/A   Clear
3:53 AM 75.9 °F - 73.9 °F 94% 30.07 in 10.0 mi SE 5.8 mph - N/A   Clear
4:42 AM 75.2 °F - 73.4 °F 94% 30.06 in 10.0 mi SE 9.2 mph - N/A   Partly Cloudy
4:53 AM 75.9 °F - 75.0 °F 97% 30.06 in 10.0 mi SE 9.2 mph - N/A   Partly Cloudy
5:53 AM 75.9 °F - 75.0 °F 97% 30.08 in 10.0 mi ESE 5.8 mph - N/A   Scattered Clouds
6:53 AM 75.9 °F - 73.9 °F 94% 30.09 in 9.0 mi Calm Calm - N/A   Clear
7:53 AM 78.1 °F - 75.0 °F 90% 30.11 in 10.0 mi North 3.5 mph - N/A   Partly Cloudy
8:15 AM 78.8 °F - 75.2 °F 89% 30.11 in 10.0 mi NE 3.5 mph - N/A   Partly Cloudy
8:53 AM 79.0 °F - 75.0 °F 88% 30.12 in 10.0 mi East 5.8 mph - N/A   Clear
9:53 AM 84.0 °F 91.2 °F 73.9 °F 72% 30.11 in 10.0 mi ESE 11.5 mph - N/A   Partly Cloudy
10:53 AM 84.9 °F 92.1 °F 73.9 °F 69% 30.11 in 10.0 mi ESE 11.5 mph 16.1 mph N/A   Partly Cloudy
11:53 AM 87.1 °F 94.5 °F 73.0 °F 63% 30.12 in 10.0 mi ESE 11.5 mph - N/A   Partly Cloudy
12:53 PM 89.1 °F 97.0 °F 73.0 °F 59% 30.11 in 10.0 mi SE 11.5 mph - N/A   Clear
1:53 PM 91.0 °F 98.2 °F 72.0 °F 53% 30.09 in 10.0 mi SE 11.5 mph - N/A   Scattered Clouds
2:53 PM 91.0 °F 97.6 °F 71.1 °F 52% 30.07 in 10.0 mi SE 9.2 mph - N/A   Clear
3:53 PM 91.9 °F 97.4 °F 70.0 °F 48% 30.05 in 10.0 mi SE 10.4 mph - N/A   Partly Cloudy
4:53 PM 89.1 °F 98.0 °F 73.9 °F 61% 30.04 in 10.0 mi WSW 10.4 mph - N/A   Mostly Cloudy
5:53 PM 82.9 °F 90.2 °F 75.0 °F 77% 30.03 in 10.0 mi West 5.8 mph - N/A   Mostly Cloudy
6:09 PM 80.6 °F 85.4 °F 73.4 °F 79% 30.04 in 10.0 mi SSW 11.5 mph - N/A Thunderstorm Mostly Cloudy
6:32 PM 80.6 °F 85.4 °F 73.4 °F 79% 30.04 in 10.0 mi West 6.9 mph - N/A   Overcast
6:39 PM 80.6 °F 86.2 °F 75.2 °F 84% 30.04 in 10.0 mi WSW 5.8 mph - N/A Thunderstorm Mostly Cloudy
6:53 PM 80.1 °F 85.1 °F 75.0 °F 85% 30.05 in 10.0 mi WNW 5.8 mph - N/A Thunderstorm Scattered Clouds
7:11 PM 80.6 °F 86.2 °F 75.2 °F 84% 30.04 in 10.0 mi West 4.6 mph - N/A   Clear
7:53 PM 82.0 °F 88.6 °F 75.0 °F 79% 30.05 in 10.0 mi Calm Calm - N/A   Clear
8:53 PM 80.1 °F 85.4 °F 75.9 °F 87% 30.07 in 10.0 mi North 6.9 mph - N/A   Mostly Cloudy
9:53 PM 79.0 °F - 75.0 °F 88% 30.09 in 10.0 mi Calm Calm - N/A   Mostly Cloudy
10:53 PM 79.0 °F - 73.0 °F 82% 30.11 in 10.0 mi ESE 5.8 mph - N/A   Clear
11:53 PM 79.0 °F - 73.0 °F 82% 30.11 in 10.0 mi ESE 4.6 mph - N/A   Clear